Starlink 32209

operational
NORAD ID: 60590 Int'l Des: 2024-150 Owner: SPXS Country: US Constellation: starlink
LEOCIRCULAR

Über Starlink 32209

Beschreibung wird geladen...

Live-Position

3D-Globus wird geladen...

Nächste Überflüge

Höhenverlauf

Altitude vs Time

uPlot chart will show altitude changes over time

Zweizeiliger Elementsatz

1 60590U 24150H 25305.93988900 .00004032 00000-0 14826-3 0 9996
2 60590 53.1609 180.3172 0001383 78.1819 281.9337 15.30182239 68480
Epoch: 1. Nov. 2025 • Age: 28 hours

Aktueller Status

Höhe 491.7 km
Geschwindigkeit 7.62 km/s
Subsatellitenpunkt -45.87°S, 31.46°W
Startdatum 20. Aug. 2024
Alter 1.2 years
Typ internet

Technische Details

Klassifizierung Payload
Masse 730.00 kg
Trockenmasse 700.00 kg
Gesamtmasse 730.00 kg
Länge 0.30 m
Durchmesser 4.10 m
Spannweite 29.00 m
Form Box + pan
Hersteller SPXS
Bus-Typ Starlink V2M
Phasenstatus In Orbit
Besitzer/Staat SPXS/US

Große Konstellationen

Loading constellations...